Showing default

OPS 9322 (IDSCS 9), 2649

Orbit data source: Space-Track

OPS 9322 (IDSCS 9), 2649 is a payload satellite owned by USAF SSD (US) in GEO that was launched on Wed, 18 Jan 1967 UTC via a TITAN IIIC launch vehicle from the Air Force Eastern Test Range (AFETR). Payload-class satellites include a variety of spacecraft equipped with specific instruments for various scientific and technological missions. These include communications satellites like Starlink; space stations such as the ISS; scientific satellites like the Hubble; Earth observation satellites from companies like Planet Labs, Umbra, and HawkEye 360; GPS; miniature CubeSats for education and research; and military/defense satellites.

Loading next visibility...
Identifier
2649, 1967-003B
Orbit
GEO
Last TLE update
19 hours ago
Origin
Manufacturer
Philco-Ford WDL
Mission
Non-operational Defense Communications
Bus & Motor
IDCSP, Unknown motor
Mass
45 kg wet, 45 kg dry
Launch date (UTC)
1967-01-18 (58 years ago)
Launch vehicle
TITAN IIIC
Launch site
Air Force Eastern Test Range (AFETR)
Object type
Payload
Rocket body
Debris
Shape & HBR
Ico Poly, 0.9 m
Radar Cross Section
0.926 m², Medium (>0.1 m² and < 1m²)

Expand to show TLE details & history

TLE from 19 hours ago
0 OPS 9322 (IDSCS 9)
1 02649U 67003B   25189.54255418 -.00000051  00000-0  00000-0 0  9993
2 02649   7.6617  47.6697 0035283 108.6172 118.2715  1.08281333135716
Epoch: 2025-07-08T13:01Z
TLE epoch observation values (Epoch: 2025-07-08T13:01:16.681Z)
Latitude
-5.64022°
Longitude
152.60433°
Altitude
33,749.054 km
Speed
3.149 km/s
True Right ascension
18h 18m 38s
True Declination
-5° 38' 03"
Sunlit
Object was in daylight at epoch
Visualization orbit readout
Latitude
-0.4299°
Longitude
108.77753°
Altitude
33,642.961 km
Speed
3.157 km/s
Apparent Right ascension
14h 55m 17s
Apparent Declination
-6° 20' 18"
Sunlit
Object is in daylight
Visualization observer readout
Local Sidereal Time
20:37:54
Azimuth
262.356° W
Elevation
-0.749°
Doppler factor
1
Orbital elements
Apogee altitude
33,823.241 km
Perigee altitude
33,540.553 km
Semi-major axis
40,060.034 km
Eccentricity
0.00353
Inclination
7.6617°
RAAN
47.6697°
Arg. of periapsis
108.6172°
True anomaly
Unknown
Mean anomaly
118.2715°
Eccentric anomaly
Unknown
Mean motion
0.27069 °/min
Orbital period
1,329.92 mins
BSTAR
0
Loading historical data...
2649 neighbors
Loading maneuver chart data...
Loading SW <> Apogee altitude chart data...
Loading historical data...
Loading historical data...
Loading historical data...
Loading historical data...
Loading historical data...
Loading historical data...
Loading historical data...

OPS 9322 (IDSCS 9) Visibility forecast

Observer location: undefined°, undefined°

Span
Click to sort rows by Start time (UTC) header in descending order
Start Az.
Max El. time (UTC)
Max El. Az.
Max El.
End time (UTC)
End Az.
752 mins2025-07-09 19:56:14.402Z254.763° W2025-07-10 03:24:14.402Z251.21° W19.723°2025-07-10 08:28:14.402Z238.574° WSW
|